^^
Saratoga-Weather Station Historical Data
Daily Summary for June 12, 2020 Units:  Both    English   Metric
Daily Weekly Monthly Yearly Custom
  High: Low: Average:
Temperature: 48.6 °F /  9.2 °C 41.2 °F /  5.1 °C 45.3 °F /  7.4 °C
Dew Point: 46.4 °F /  8 °C 40.5 °F /  4.7 °C 44.1 °F /  6.7 °C
Humidity: 98% 90% 96%
Wind Speed: 10.1mph /  16.3km/h - 2.4mph /  3.8km/h
Wind Gust: 14mph /  22.5km/h - -
Wind- - West
Pressure: 29.7 in /  1005.8 hPa 29.3 in /  991.2 hPa -
Precipitation: 0.32 in /  8.1 mm    
Historical Graphs
 
 
Tabular Data for June 12, 2020
Time Temperature Dew Point Pressure Wind Wind Speed Wind Gust Humidity Rainfall Rate (Hourly) solar
00:03 41.2 °F /  5.1 °C 40.5 °F /  4.7 °C 29.3in /  991.5hPa Calm     97% 0in /  0.0mm 0 W/m2
00:08 41.2 °F /  5.1 °C 40.5 °F /  4.7 °C 29.3in /  991.5hPa Calm     97% 0in /  0.0mm 0 W/m2
00:13 41.2 °F /  5.1 °C 40.5 °F /  4.7 °C 29.3in /  991.2hPa Calm     97% 0in /  0.0mm 0 W/m2
00:18 41.2 °F /  5.1 °C 40.5 °F /  4.7 °C 29.3in /  991.2hPa Calm     97% 0in /  0.0mm 0 W/m2
00:23 41.2 °F /  5.1 °C 40.5 °F /  4.7 °C 29.3in /  991.2hPa Calm     97% 0in /  0.0mm 0 W/m2
00:28 41.2 °F /  5.1 °C 40.5 °F /  4.7 °C 29.3in /  991.2hPa Calm     97% 0in /  0.0mm 0 W/m2
00:33 41.2 °F /  5.1 °C 40.5 °F /  4.7 °C 29.3in /  991.2hPa Calm     97% 0in /  0.0mm 0 W/m2
00:38 41.2 °F /  5.1 °C 40.5 °F /  4.7 °C 29.3in /  991.2hPa Calm     97% 0in /  0.0mm 0 W/m2
00:43 41.2 °F /  5.1 °C 40.5 °F /  4.7 °C 29.3in /  991.2hPa Calm     97% 0in /  0.0mm 0 W/m2
00:48 41.2 °F /  5.1 °C 40.5 °F /  4.7 °C 29.3in /  991.2hPa Calm     97% 0in /  0.0mm 0 W/m2
00:53 41.2 °F /  5.1 °C 40.5 °F /  4.7 °C 29.3in /  991.2hPa Calm     97% 0in /  0.0mm 0 W/m2
00:58 41.4 °F /  5.2 °C 40.6 °F /  4.8 °C 29.3in /  991.2hPa Calm     97% 0in /  0.0mm 0 W/m2
01:03 41.4 °F /  5.2 °C 40.6 °F /  4.8 °C 29.3in /  991.2hPa Calm     97% 0in /  0.0mm 0 W/m2
01:08 41.4 °F /  5.2 °C 40.6 °F /  4.8 °C 29.3in /  991.2hPa Calm     97% 0in /  0.0mm 0 W/m2
01:13 41.4 °F /  5.2 °C 40.6 °F /  4.8 °C 29.3in /  991.2hPa Calm     97% 0in /  0.0mm 0 W/m2
01:18 41.4 °F /  5.2 °C 40.6 °F /  4.8 °C 29.3in /  991.2hPa Calm     97% 0in /  0.0mm 0 W/m2
01:23 41.4 °F /  5.2 °C 40.6 °F /  4.8 °C 29.3in /  991.5hPa Calm     97% 0in /  0.0mm 0 W/m2
01:28 41.4 °F /  5.2 °C 40.6 °F /  4.8 °C 29.3in /  991.5hPa Calm     97% 0in /  0.0mm 0 W/m2
01:33 41.4 °F /  5.2 °C 40.6 °F /  4.8 °C 29.3in /  991.2hPa Calm     97% 0in /  0.0mm 0 W/m2
01:38 41.4 °F /  5.2 °C 40.6 °F /  4.8 °C 29.3in /  991.5hPa Calm     97% 0in /  0.0mm 0 W/m2
01:43 41.4 °F /  5.2 °C 40.6 °F /  4.8 °C 29.3in /  991.5hPa Calm     97% 0in /  0.0mm 0 W/m2
01:48 41.4 °F /  5.2 °C 40.6 °F /  4.8 °C 29.3in /  991.5hPa Calm     97% 0in /  0.0mm 0 W/m2
01:53 41.4 °F /  5.2 °C 40.6 °F /  4.8 °C 29.3in /  991.2hPa Calm     97% 0in /  0.0mm 0 W/m2
01:58 41.4 °F /  5.2 °C 40.6 °F /  4.8 °C 29.3in /  991.5hPa Calm     97% 0in /  0.0mm 0 W/m2
02:03 41.5 °F /  5.3 °C 41 °F /  5 °C 29.3in /  991.5hPa Calm     98% 0.01in /  0.2mm 0 W/m2
02:08 41.5 °F /  5.3 °C 41 °F /  5 °C 29.3in /  991.5hPa Calm   1mph /  1.6km/h 98% 0.01in /  0.2mm 0 W/m2
02:13 41.5 °F /  5.3 °C 41 °F /  5 °C 29.3in /  991.5hPa Calm     98% 0.01in /  0.2mm 0 W/m2
02:18 41.7 °F /  5.4 °C 41.2 °F /  5.1 °C 29.3in /  991.5hPa Calm   1mph /  1.6km/h 98% 0.01in /  0.2mm 0 W/m2
02:23 41.7 °F /  5.4 °C 41.2 °F /  5.1 °C 29.3in /  991.5hPa Calm     98% 0.01in /  0.2mm 0 W/m2
02:28 41.7 °F /  5.4 °C 41.2 °F /  5.1 °C 29.3in /  991.5hPa NE 0.9mph /  1.4km/h 2mph /  3.2km/h 98% 0.01in /  0.2mm 0 W/m2
02:33 41.7 °F /  5.4 °C 41.2 °F /  5.1 °C 29.3in /  991.5hPa Calm     98% 0.01in /  0.2mm 0 W/m2
02:38 41.7 °F /  5.4 °C 41.2 °F /  5.1 °C 29.3in /  991.5hPa NE 2mph /  3.2km/h 2mph /  3.2km/h 98% 0.01in /  0.2mm 0 W/m2
02:43 41.7 °F /  5.4 °C 41.2 °F /  5.1 °C 29.3in /  991.5hPa Calm     98% 0.01in /  0.2mm 0 W/m2
02:48 41.7 °F /  5.4 °C 41.2 °F /  5.1 °C 29.3in /  991.5hPa Calm     98% 0.02in /  0.5mm 0 W/m2
02:53 41.7 °F /  5.4 °C 41.2 °F /  5.1 °C 29.3in /  991.5hPa Calm     98% 0.02in /  0.5mm 0 W/m2
02:58 41.7 °F /  5.4 °C 41.2 °F /  5.1 °C 29.3in /  991.5hPa Calm     98% 0.02in /  0.5mm 0 W/m2
03:03 41.7 °F /  5.4 °C 41.2 °F /  5.1 °C 29.3in /  991.5hPa Calm     98% 0.01in /  0.2mm 0 W/m2
03:08 41.7 °F /  5.4 °C 41.2 °F /  5.1 °C 29.3in /  991.5hPa Calm     98% 0.02in /  0.5mm 0 W/m2
03:13 41.7 °F /  5.4 °C 41.2 °F /  5.1 °C 29.3in /  991.5hPa Calm     98% 0.02in /  0.5mm 0 W/m2
03:18 41.7 °F /  5.4 °C 41.2 °F /  5.1 °C 29.3in /  991.5hPa Calm     98% 0.02in /  0.5mm 0 W/m2
03:23 41.7 °F /  5.4 °C 41.2 °F /  5.1 °C 29.3in /  991.5hPa Calm     98% 0.02in /  0.5mm 0 W/m2
03:28 41.7 °F /  5.4 °C 41.2 °F /  5.1 °C 29.3in /  991.5hPa Calm     98% 0.02in /  0.5mm 0 W/m2
03:33 41.7 °F /  5.4 °C 41.2 °F /  5.1 °C 29.3in /  991.5hPa Calm     98% 0.02in /  0.5mm 0 W/m2
03:38 41.7 °F /  5.4 °C 41.2 °F /  5.1 °C 29.3in /  991.5hPa Calm     98% 0.02in /  0.5mm 0 W/m2
03:43 41.7 °F /  5.4 °C 41.2 °F /  5.1 °C 29.3in /  991.5hPa Calm     98% 0.02in /  0.5mm 0 W/m2
03:48 41.7 °F /  5.4 °C 41.2 °F /  5.1 °C 29.3in /  991.5hPa Calm     98% 0.02in /  0.5mm 0 W/m2
03:53 41.7 °F /  5.4 °C 41.2 °F /  5.1 °C 29.3in /  991.5hPa Calm     98% 0.02in /  0.5mm 0 W/m2
03:58 41.7 °F /  5.4 °C 41.2 °F /  5.1 °C 29.3in /  991.5hPa Calm     98% 0.02in /  0.5mm 0 W/m2
04:03 41.7 °F /  5.4 °C 41.2 °F /  5.1 °C 29.3in /  991.5hPa Calm     98% 0.03in /  0.8mm 0 W/m2
04:08 41.9 °F /  5.5 °C 41.4 °F /  5.2 °C 29.3in /  991.5hPa Calm     98% 0.02in /  0.5mm 0 W/m2
04:13 41.9 °F /  5.5 °C 41.4 °F /  5.2 °C 29.3in /  991.5hPa Calm     98% 0.03in /  0.8mm 0 W/m2
04:18 41.9 °F /  5.5 °C 41.4 °F /  5.2 °C 29.3in /  991.9hPa Calm     98% 0.03in /  0.8mm 0 W/m2
04:23 41.9 °F /  5.5 °C 41.4 °F /  5.2 °C 29.3in /  991.9hPa Calm     98% 0.03in /  0.8mm 0 W/m2
04:29 41.9 °F /  5.5 °C 41.4 °F /  5.2 °C 29.3in /  991.9hPa Calm     98% 0.03in /  0.8mm 0 W/m2
04:34 41.9 °F /  5.5 °C 41.4 °F /  5.2 °C 29.3in /  991.9hPa Calm     98% 0.03in /  0.8mm 0 W/m2
04:39 42.1 °F /  5.6 °C 41.5 °F /  5.3 °C 29.3in /  991.9hPa Calm   1mph /  1.6km/h 98% 0.02in /  0.5mm 0 W/m2
04:44 42.3 °F /  5.7 °C 41.7 °F /  5.4 °C 29.3in /  991.9hPa WNW 0.9mph /  1.4km/h 3mph /  4.8km/h 98% 0.02in /  0.5mm 0 W/m2
04:49 42.4 °F /  5.8 °C 41.9 °F /  5.5 °C 29.3in /  991.9hPa Calm     98% 0.03in /  0.8mm 0 W/m2
04:54 42.4 °F /  5.8 °C 41.9 °F /  5.5 °C 29.3in /  991.9hPa NW 3mph /  4.8km/h 3mph /  4.8km/h 98% 0.02in /  0.5mm 0 W/m2
04:59 42.4 °F /  5.8 °C 41.9 °F /  5.5 °C 29.3in /  991.9hPa Calm     98% 0.02in /  0.5mm 0 W/m2
05:04 42.6 °F /  5.9 °C 42.1 °F /  5.6 °C 29.3in /  991.9hPa Calm     98% 0.02in /  0.5mm 0 W/m2
05:09 42.6 °F /  5.9 °C 42.1 °F /  5.6 °C 29.3in /  991.9hPa Calm     98% 0.02in /  0.5mm 0 W/m2
05:14 42.8 °F /  6 °C 42.3 °F /  5.7 °C 29.3in /  992.2hPa Calm     98% 0.01in /  0.2mm 0 W/m2
05:19 42.8 °F /  6 °C 42.3 °F /  5.7 °C 29.3in /  992.2hPa Calm   2mph /  3.2km/h 98% 0.01in /  0.2mm 0 W/m2
05:24 43 °F /  6.1 °C 42.4 °F /  5.8 °C 29.3in /  992.2hPa SW 0.9mph /  1.4km/h 2mph /  3.2km/h 98% 0.01in /  0.2mm 0 W/m2
05:29 43.3 °F /  6.3 °C 42.8 °F /  6 °C 29.3in /  992.2hPa West 2mph /  3.2km/h 3mph /  4.8km/h 98% 0.01in /  0.2mm 0 W/m2
05:34 43.9 °F /  6.6 °C 43.3 °F /  6.3 °C 29.3in /  992.2hPa Calm   4mph /  6.4km/h 98% 0.01in /  0.2mm 0 W/m2
05:39 44.1 °F /  6.7 °C 43.5 °F /  6.4 °C 29.3in /  992.2hPa WSW 2mph /  3.2km/h 4mph /  6.4km/h 98% 0.01in /  0.2mm 0 W/m2
05:44 44.2 °F /  6.8 °C 43.7 °F /  6.5 °C 29.3in /  992.2hPa SW 2mph /  3.2km/h 8mph /  12.9km/h 98% 0.02in /  0.5mm 0 W/m2
05:49 44.2 °F /  6.8 °C 43.7 °F /  6.5 °C 29.3in /  992.2hPa West 6mph /  9.7km/h 6mph /  9.7km/h 98% 0.01in /  0.2mm 0 W/m2
05:54 44.2 °F /  6.8 °C 43.7 °F /  6.5 °C 29.3in /  992.2hPa WSW 4mph /  6.4km/h 8mph /  12.9km/h 98% 0.01in /  0.2mm 0 W/m2
05:59 44.4 °F /  6.9 °C 43.9 °F /  6.6 °C 29.3in /  992.5hPa WNW 2.9mph /  4.7km/h 6mph /  9.7km/h 98% 0.01in /  0.2mm 0 W/m2
06:04 44.4 °F /  6.9 °C 43.9 °F /  6.6 °C 29.3in /  992.5hPa WNW 2mph /  3.2km/h 7mph /  11.3km/h 98% 0.01in /  0.2mm 0 W/m2
06:09 44.4 °F /  6.9 °C 43.9 °F /  6.6 °C 29.3in /  992.5hPa West 0.9mph /  1.4km/h 3mph /  4.8km/h 98% 0.01in /  0.2mm 0 W/m2
06:14 44.6 °F /  7 °C 44.1 °F /  6.7 °C 29.3in /  992.5hPa West 2mph /  3.2km/h 6mph /  9.7km/h 98% 0.01in /  0.2mm 0 W/m2
06:19 44.6 °F /  7 °C 44.1 °F /  6.7 °C 29.3in /  992.5hPa West 2.9mph /  4.7km/h 7mph /  11.3km/h 98% 0.01in /  0.2mm 0 W/m2
06:24 44.8 °F /  7.1 °C 44.2 °F /  6.8 °C 29.3in /  992.5hPa WNW 0.9mph /  1.4km/h 2mph /  3.2km/h 98% 0.02in /  0.5mm 0 W/m2
06:29 44.8 °F /  7.1 °C 44.2 °F /  6.8 °C 29.3in /  992.5hPa WNW 2.9mph /  4.7km/h 7mph /  11.3km/h 98% 0.02in /  0.5mm 0 W/m2
06:34 45 °F /  7.2 °C 44.4 °F /  6.9 °C 29.3in /  992.5hPa West 2mph /  3.2km/h 8mph /  12.9km/h 98% 0.02in /  0.5mm 0 W/m2
06:39 45 °F /  7.2 °C 44.4 °F /  6.9 °C 29.3in /  992.5hPa SSW 2.9mph /  4.7km/h 4mph /  6.4km/h 98% 0.02in /  0.5mm 0 W/m2
06:44 45 °F /  7.2 °C 44.4 °F /  6.9 °C 29.3in /  992.9hPa WNW 2mph /  3.2km/h 4mph /  6.4km/h 98% 0.02in /  0.5mm 0 W/m2
06:49 45 °F /  7.2 °C 44.4 °F /  6.9 °C 29.3in /  992.9hPa West 2.9mph /  4.7km/h 6mph /  9.7km/h 98% 0.02in /  0.5mm 0 W/m2
06:54 45 °F /  7.2 °C 44.4 °F /  6.9 °C 29.3in /  992.9hPa West 2mph /  3.2km/h 3mph /  4.8km/h 98% 0.02in /  0.5mm 0 W/m2
06:59 45.1 °F /  7.3 °C 44.6 °F /  7 °C 29.3in /  992.9hPa SSW 2mph /  3.2km/h 4mph /  6.4km/h 98% 0.02in /  0.5mm 0 W/m2
07:04 45.1 °F /  7.3 °C 44.6 °F /  7 °C 29.3in /  992.9hPa West 2mph /  3.2km/h 3mph /  4.8km/h 98% 0.03in /  0.8mm 0 W/m2
07:09 45.1 °F /  7.3 °C 44.6 °F /  7 °C 29.3in /  992.9hPa WNW 0.9mph /  1.4km/h 5mph /  8km/h 98% 0.03in /  0.8mm 0 W/m2
07:14 45.1 °F /  7.3 °C 44.6 °F /  7 °C 29.3in /  993.2hPa WSW 2mph /  3.2km/h 4mph /  6.4km/h 98% 0.03in /  0.8mm 0 W/m2
07:19 45.1 °F /  7.3 °C 44.6 °F /  7 °C 29.3in /  993.2hPa WNW 2.9mph /  4.7km/h 8mph /  12.9km/h 98% 0.04in /  1.0mm 0 W/m2
07:24 45.3 °F /  7.4 °C 44.6 °F /  7 °C 29.3in /  993.2hPa West 2.9mph /  4.7km/h 4mph /  6.4km/h 97% 0.03in /  0.8mm 0 W/m2
07:29 45.3 °F /  7.4 °C 44.6 °F /  7 °C 29.3in /  993.2hPa West 2mph /  3.2km/h 7mph /  11.3km/h 97% 0.04in /  1.0mm 0 W/m2
07:34 45.3 °F /  7.4 °C 44.6 °F /  7 °C 29.3in /  993.2hPa WNW 2mph /  3.2km/h 6mph /  9.7km/h 97% 0.05in /  1.3mm 0 W/m2
07:39 45.3 °F /  7.4 °C 44.6 °F /  7 °C 29.3in /  993.2hPa WNW 0.9mph /  1.4km/h 6mph /  9.7km/h 97% 0.05in /  1.3mm 0 W/m2
07:44 45.3 °F /  7.4 °C 44.6 °F /  7 °C 29.3in /  993.6hPa WSW 2.9mph /  4.7km/h 6mph /  9.7km/h 97% 0.04in /  1.0mm 0 W/m2
07:49 45.3 °F /  7.4 °C 44.6 °F /  7 °C 29.3in /  993.6hPa WNW 4mph /  6.4km/h 4mph /  6.4km/h 97% 0.05in /  1.3mm 0 W/m2
07:54 45.3 °F /  7.4 °C 44.6 °F /  7 °C 29.3in /  993.6hPa West 2.9mph /  4.7km/h 4mph /  6.4km/h 97% 0.04in /  1.0mm 0 W/m2
07:59 45.3 °F /  7.4 °C 44.6 °F /  7 °C 29.3in /  993.6hPa West 2.9mph /  4.7km/h 7mph /  11.3km/h 97% 0.04in /  1.0mm 0 W/m2
08:04 45.3 °F /  7.4 °C 44.6 °F /  7 °C 29.3in /  993.6hPa NW 2.9mph /  4.7km/h 4mph /  6.4km/h 97% 0.04in /  1.0mm 0 W/m2
08:09 45.3 °F /  7.4 °C 44.6 °F /  7 °C 29.4in /  993.9hPa West 6mph /  9.7km/h 8mph /  12.9km/h 97% 0.04in /  1.0mm 0 W/m2
08:14 45.3 °F /  7.4 °C 44.6 °F /  7 °C 29.4in /  993.9hPa WNW 2.9mph /  4.7km/h 7mph /  11.3km/h 97% 0.04in /  1.0mm 0 W/m2
08:19 45.3 °F /  7.4 °C 44.6 °F /  7 °C 29.4in /  993.9hPa WNW 4.9mph /  7.9km/h 5mph /  8km/h 97% 0.03in /  0.8mm 0 W/m2
08:24 45.3 °F /  7.4 °C 44.6 °F /  7 °C 29.4in /  994.2hPa West 0.9mph /  1.4km/h 7mph /  11.3km/h 97% 0.02in /  0.5mm 0 W/m2
08:29 45.3 °F /  7.4 °C 44.6 °F /  7 °C 29.4in /  994.2hPa WNW 2.9mph /  4.7km/h 7mph /  11.3km/h 97% 0.02in /  0.5mm 0 W/m2
08:34 45.3 °F /  7.4 °C 44.6 °F /  7 °C 29.4in /  994.2hPa WNW 6.9mph /  11.1km/h 8mph /  12.9km/h 97% 0.02in /  0.5mm 0 W/m2
08:39 45.3 °F /  7.4 °C 44.6 °F /  7 °C 29.4in /  994.2hPa West 6mph /  9.7km/h 6mph /  9.7km/h 97% 0.02in /  0.5mm 0 W/m2
08:44 45.5 °F /  7.5 °C 44.8 °F /  7.1 °C 29.4in /  994.2hPa WNW 6mph /  9.7km/h 6mph /  9.7km/h 97% 0.02in /  0.5mm 5 W/m2
08:49 45.5 °F /  7.5 °C 44.8 °F /  7.1 °C 29.4in /  994.6hPa WSW 6.9mph /  11.1km/h 10mph /  16.1km/h 97% 0.01in /  0.2mm 5 W/m2
08:54 45.5 °F /  7.5 °C 44.8 °F /  7.1 °C 29.4in /  994.6hPa WNW 8.1mph /  13km/h 8mph /  12.9km/h 97% 0.01in /  0.2mm 7 W/m2
08:59 45.5 °F /  7.5 °C 44.4 °F /  6.9 °C 29.4in /  994.6hPa West 2.9mph /  4.7km/h 8mph /  12.9km/h 96% 0.02in /  0.5mm 9 W/m2
09:04 45.5 °F /  7.5 °C 44.4 °F /  6.9 °C 29.4in /  994.9hPa West 6.9mph /  11.1km/h 7mph /  11.3km/h 96% 0.01in /  0.2mm 11 W/m2
09:09 45.5 °F /  7.5 °C 44.4 °F /  6.9 °C 29.4in /  994.9hPa WNW 2mph /  3.2km/h 7mph /  11.3km/h 96% 0.01in /  0.2mm 12 W/m2
09:14 45.5 °F /  7.5 °C 44.4 °F /  6.9 °C 29.4in /  994.9hPa West 6mph /  9.7km/h 7mph /  11.3km/h 96% 0.01in /  0.2mm 14 W/m2
09:19 45.5 °F /  7.5 °C 44.4 °F /  6.9 °C 29.4in /  994.9hPa WNW 2.9mph /  4.7km/h 6mph /  9.7km/h 96% 0.01in /  0.2mm 16 W/m2
09:24 45.5 °F /  7.5 °C 44.4 °F /  6.9 °C 29.4in /  995.3hPa WNW 2.9mph /  4.7km/h 8mph /  12.9km/h 96% 0.01in /  0.2mm 18 W/m2
09:29 45.5 °F /  7.5 °C 44.4 °F /  6.9 °C 29.4in /  995.3hPa NW 2mph /  3.2km/h 5mph /  8km/h 96% 0.01in /  0.2mm 18 W/m2
09:34 45.5 °F /  7.5 °C 44.4 °F /  6.9 °C 29.4in /  995.3hPa West 2.9mph /  4.7km/h 8mph /  12.9km/h 96% 0.01in /  0.2mm 18 W/m2
09:40 45.5 °F /  7.5 °C 44.4 °F /  6.9 °C 29.4in /  995.3hPa NW 4mph /  6.4km/h 9mph /  14.5km/h 96% 0.01in /  0.2mm 18 W/m2
09:45 45.5 °F /  7.5 °C 44.4 °F /  6.9 °C 29.4in /  995.6hPa West 2.9mph /  4.7km/h 4mph /  6.4km/h 96% 0.01in /  0.2mm 19 W/m2
09:50 45.7 °F /  7.6 °C 44.6 °F /  7 °C 29.4in /  995.6hPa SW 4mph /  6.4km/h 7mph /  11.3km/h 96% 0.01in /  0.2mm 23 W/m2
09:55 45.7 °F /  7.6 °C 44.6 °F /  7 °C 29.4in /  995.6hPa West 0.9mph /  1.4km/h 4mph /  6.4km/h 96% 0.01in /  0.2mm 28 W/m2
10:00 45.7 °F /  7.6 °C 44.6 °F /  7 °C 29.4in /  995.6hPa West 2.9mph /  4.7km/h 6mph /  9.7km/h 96% 0in /  0.0mm 33 W/m2
10:05 45.7 °F /  7.6 °C 44.6 °F /  7 °C 29.4in /  995.9hPa WNW 2.9mph /  4.7km/h 4mph /  6.4km/h 96% 0.01in /  0.2mm 42 W/m2
10:10 45.7 °F /  7.6 °C 44.6 °F /  7 °C 29.4in /  995.9hPa West 6.9mph /  11.1km/h 9mph /  14.5km/h 96% 0.01in /  0.2mm 42 W/m2
10:15 45.7 °F /  7.6 °C 44.6 °F /  7 °C 29.4in /  995.9hPa West 4mph /  6.4km/h 5mph /  8km/h 96% 0.01in /  0.2mm 42 W/m2
10:20 45.7 °F /  7.6 °C 44.6 °F /  7 °C 29.4in /  995.9hPa WNW 2mph /  3.2km/h 9mph /  14.5km/h 96% 0.01in /  0.2mm 46 W/m2
10:25 45.9 °F /  7.7 °C 44.8 °F /  7.1 °C 29.4in /  995.9hPa WNW 2.9mph /  4.7km/h 7mph /  11.3km/h 96% 0.01in /  0.2mm 37 W/m2
10:30 45.9 °F /  7.7 °C 44.8 °F /  7.1 °C 29.4in /  996.3hPa WNW 2.9mph /  4.7km/h 7mph /  11.3km/h 96% 0.01in /  0.2mm 35 W/m2
10:35 45.9 °F /  7.7 °C 44.8 °F /  7.1 °C 29.4in /  996.3hPa West 4mph /  6.4km/h 6mph /  9.7km/h 96% 0.01in /  0.2mm 32 W/m2
10:40 45.9 °F /  7.7 °C 44.8 °F /  7.1 °C 29.4in /  996.3hPa WSW 4mph /  6.4km/h 7mph /  11.3km/h 96% 0.01in /  0.2mm 33 W/m2
10:45 45.9 °F /  7.7 °C 44.8 °F /  7.1 °C 29.4in /  996.6hPa West 4mph /  6.4km/h 6mph /  9.7km/h 96% 0.01in /  0.2mm 49 W/m2
10:50 45.9 °F /  7.7 °C 44.8 °F /  7.1 °C 29.4in /  996.6hPa West 6.9mph /  11.1km/h 10mph /  16.1km/h 96% 0.01in /  0.2mm 70 W/m2
10:55 46 °F /  7.8 °C 45 °F /  7.2 °C 29.4in /  996.6hPa WNW 2mph /  3.2km/h 8mph /  12.9km/h 96% 0.01in /  0.2mm 69 W/m2
11:00 46 °F /  7.8 °C 45 °F /  7.2 °C 29.4in /  996.6hPa WNW 4mph /  6.4km/h 10mph /  16.1km/h 96% 0.01in /  0.2mm 46 W/m2
11:05 46 °F /  7.8 °C 45 °F /  7.2 °C 29.4in /  997.0hPa West 6mph /  9.7km/h 7mph /  11.3km/h 96% 0in /  0.0mm 44 W/m2
11:10 46 °F /  7.8 °C 45 °F /  7.2 °C 29.4in /  997.0hPa WNW 2.9mph /  4.7km/h 7mph /  11.3km/h 96% 0in /  0.0mm 46 W/m2
11:15 46 °F /  7.8 °C 45 °F /  7.2 °C 29.4in /  997.0hPa West 4mph /  6.4km/h 8mph /  12.9km/h 96% 0in /  0.0mm 83 W/m2
11:20 46.2 °F /  7.9 °C 45.1 °F /  7.3 °C 29.4in /  997.0hPa West 4mph /  6.4km/h 9mph /  14.5km/h 96% 0in /  0.0mm 95 W/m2
11:25 46.2 °F /  7.9 °C 45.1 °F /  7.3 °C 29.4in /  997.0hPa WSW 2mph /  3.2km/h 7mph /  11.3km/h 96% 0in /  0.0mm 81 W/m2
11:30 46.4 °F /  8 °C 45.3 °F /  7.4 °C 29.4in /  997.0hPa West 0.9mph /  1.4km/h 9mph /  14.5km/h 96% 0in /  0.0mm 86 W/m2
11:35 46.6 °F /  8.1 °C 45.5 °F /  7.5 °C 29.4in /  997.0hPa West 2.9mph /  4.7km/h 7mph /  11.3km/h 96% 0in /  0.0mm 86 W/m2
11:40 46.6 °F /  8.1 °C 45.5 °F /  7.5 °C 29.4in /  997.0hPa WSW 2.9mph /  4.7km/h 6mph /  9.7km/h 96% 0in /  0.0mm 102 W/m2
11:45 46.8 °F /  8.2 °C 45.7 °F /  7.6 °C 29.4in /  997.0hPa WSW 2.9mph /  4.7km/h 9mph /  14.5km/h 96% 0in /  0.0mm 102 W/m2
11:50 46.8 °F /  8.2 °C 45.3 °F /  7.4 °C 29.5in /  997.3hPa West 4mph /  6.4km/h 8mph /  12.9km/h 95% 0in /  0.0mm 102 W/m2
11:55 46.9 °F /  8.3 °C 45.5 °F /  7.5 °C 29.5in /  997.3hPa WSW 4mph /  6.4km/h 8mph /  12.9km/h 95% 0in /  0.0mm 113 W/m2
12:00 46.9 °F /  8.3 °C 45.5 °F /  7.5 °C 29.5in /  997.3hPa WNW 2mph /  3.2km/h 6mph /  9.7km/h 95% 0in /  0.0mm 118 W/m2
12:05 47.1 °F /  8.4 °C 45.7 °F /  7.6 °C 29.5in /  997.3hPa West 2.9mph /  4.7km/h 8mph /  12.9km/h 95% 0in /  0.0mm 132 W/m2
12:10 47.5 °F /  8.6 °C 46 °F /  7.8 °C 29.5in /  997.3hPa West 8.1mph /  13km/h 8mph /  12.9km/h 95% 0in /  0.0mm 130 W/m2
12:15 47.5 °F /  8.6 °C 46 °F /  7.8 °C 29.5in /  997.3hPa West 2.9mph /  4.7km/h 7mph /  11.3km/h 95% 0in /  0.0mm 121 W/m2
12:20 47.7 °F /  8.7 °C 46 °F /  7.8 °C 29.5in /  997.3hPa West 4mph /  6.4km/h 7mph /  11.3km/h 94% 0in /  0.0mm 135 W/m2
12:25 47.7 °F /  8.7 °C 46 °F /  7.8 °C 29.5in /  997.3hPa WNW 2.9mph /  4.7km/h 6mph /  9.7km/h 94% 0in /  0.0mm 172 W/m2
12:30 47.8 °F /  8.8 °C 46.2 °F /  7.9 °C 29.5in /  997.6hPa WNW 4mph /  6.4km/h 6mph /  9.7km/h 94% 0in /  0.0mm 160 W/m2
12:35 47.8 °F /  8.8 °C 46.2 °F /  7.9 °C 29.5in /  997.6hPa West 4mph /  6.4km/h 10mph /  16.1km/h 94% 0in /  0.0mm 128 W/m2
12:40 47.8 °F /  8.8 °C 45.9 °F /  7.7 °C 29.5in /  997.6hPa West 4mph /  6.4km/h 9mph /  14.5km/h 93% 0in /  0.0mm 118 W/m2
12:45 48 °F /  8.9 °C 46 °F /  7.8 °C 29.5in /  997.6hPa WSW 4.9mph /  7.9km/h 10mph /  16.1km/h 93% 0in /  0.0mm 148 W/m2
12:50 48 °F /  8.9 °C 46 °F /  7.8 °C 29.5in /  997.6hPa West 6mph /  9.7km/h 8mph /  12.9km/h 93% 0in /  0.0mm 135 W/m2
12:55 48 °F /  8.9 °C 46 °F /  7.8 °C 29.5in /  997.6hPa WNW 4mph /  6.4km/h 8mph /  12.9km/h 93% 0in /  0.0mm 120 W/m2
13:00 48.2 °F /  9 °C 46 °F /  7.8 °C 29.5in /  998.0hPa West 0.9mph /  1.4km/h 4mph /  6.4km/h 92% 0in /  0.0mm 134 W/m2
13:05 48.4 °F /  9.1 °C 46.2 °F /  7.9 °C 29.5in /  998.0hPa WNW 4mph /  6.4km/h 7mph /  11.3km/h 92% 0in /  0.0mm 146 W/m2
13:10 48.4 °F /  9.1 °C 46.2 °F /  7.9 °C 29.5in /  998.0hPa West 4mph /  6.4km/h 4mph /  6.4km/h 92% 0in /  0.0mm 155 W/m2
13:15 48.6 °F /  9.2 °C 46.4 °F /  8 °C 29.5in /  998.0hPa WNW 2.9mph /  4.7km/h 8mph /  12.9km/h 92% 0in /  0.0mm 139 W/m2
13:20 48.6 °F /  9.2 °C 46.4 °F /  8 °C 29.5in /  998.0hPa West 4mph /  6.4km/h 9mph /  14.5km/h 92% 0in /  0.0mm 141 W/m2
13:25 48.6 °F /  9.2 °C 46 °F /  7.8 °C 29.5in /  998.0hPa WNW 8.9mph /  14.3km/h 9mph /  14.5km/h 91% 0in /  0.0mm 113 W/m2
13:30 48.4 °F /  9.1 °C 45.9 °F /  7.7 °C 29.5in /  998.3hPa WSW 4mph /  6.4km/h 9mph /  14.5km/h 91% 0in /  0.0mm 113 W/m2
13:35 48.4 °F /  9.1 °C 45.9 °F /  7.7 °C 29.5in /  998.3hPa West 6.9mph /  11.1km/h 8mph /  12.9km/h 91% 0in /  0.0mm 65 W/m2
13:40 48.2 °F /  9 °C 45.3 °F /  7.4 °C 29.5in /  998.3hPa West 6.9mph /  11.1km/h 10mph /  16.1km/h 90% 0in /  0.0mm 67 W/m2
13:45 48 °F /  8.9 °C 45.1 °F /  7.3 °C 29.5in /  998.3hPa West 2.9mph /  4.7km/h 9mph /  14.5km/h 90% 0in /  0.0mm 86 W/m2
13:50 48 °F /  8.9 °C 45.1 °F /  7.3 °C 29.5in /  998.3hPa NW 2.9mph /  4.7km/h 10mph /  16.1km/h 90% 0in /  0.0mm 84 W/m2
13:55 48 °F /  8.9 °C 45.5 °F /  7.5 °C 29.5in /  998.3hPa WSW 4mph /  6.4km/h 7mph /  11.3km/h 91% 0in /  0.0mm 67 W/m2
14:00 48 °F /  8.9 °C 45.5 °F /  7.5 °C 29.5in /  998.6hPa West 4mph /  6.4km/h 6mph /  9.7km/h 91% 0in /  0.0mm 83 W/m2
14:05 48 °F /  8.9 °C 45.5 °F /  7.5 °C 29.5in /  998.6hPa NW 2mph /  3.2km/h 7mph /  11.3km/h 91% 0in /  0.0mm 113 W/m2
14:10 48 °F /  8.9 °C 45.5 °F /  7.5 °C 29.5in /  998.6hPa WNW 6.9mph /  11.1km/h 8mph /  12.9km/h 91% 0in /  0.0mm 69 W/m2
14:15 48 °F /  8.9 °C 45.5 °F /  7.5 °C 29.5in /  998.6hPa WSW 2mph /  3.2km/h 4mph /  6.4km/h 91% 0in /  0.0mm 44 W/m2
14:20 47.8 °F /  8.8 °C 45.3 °F /  7.4 °C 29.5in /  998.6hPa WNW 2mph /  3.2km/h 4mph /  6.4km/h 91% 0in /  0.0mm 60 W/m2
14:25 47.8 °F /  8.8 °C 45.3 °F /  7.4 °C 29.5in /  998.6hPa West 0.9mph /  1.4km/h 3mph /  4.8km/h 91% 0in /  0.0mm 83 W/m2
14:30 47.8 °F /  8.8 °C 45.3 °F /  7.4 °C 29.5in /  999.0hPa WNW 2.9mph /  4.7km/h 4mph /  6.4km/h 91% 0in /  0.0mm 86 W/m2
14:35 47.8 °F /  8.8 °C 45.3 °F /  7.4 °C 29.5in /  999.0hPa West 2.9mph /  4.7km/h 6mph /  9.7km/h 91% 0in /  0.0mm 83 W/m2
14:40 48 °F /  8.9 °C 45.5 °F /  7.5 °C 29.5in /  999.0hPa WSW 4mph /  6.4km/h 5mph /  8km/h 91% 0in /  0.0mm 70 W/m2
14:45 48 °F /  8.9 °C 45.1 °F /  7.3 °C 29.5in /  999.0hPa West 2mph /  3.2km/h 2mph /  3.2km/h 90% 0in /  0.0mm 63 W/m2
14:50 47.8 °F /  8.8 °C 45.3 °F /  7.4 °C 29.5in /  999.3hPa WSW 2mph /  3.2km/h 4mph /  6.4km/h 91% 0in /  0.0mm 63 W/m2
14:55 48 °F /  8.9 °C 45.5 °F /  7.5 °C 29.5in /  999.3hPa WSW 2mph /  3.2km/h 3mph /  4.8km/h 91% 0in /  0.0mm 93 W/m2
15:00 48 °F /  8.9 °C 45.5 °F /  7.5 °C 29.5in /  999.3hPa WNW 2mph /  3.2km/h 3mph /  4.8km/h 91% 0in /  0.0mm 100 W/m2
15:05 48 °F /  8.9 °C 45.5 °F /  7.5 °C 29.5in /  999.3hPa WNW 2mph /  3.2km/h 3mph /  4.8km/h 91% 0in /  0.0mm 63 W/m2
15:10 48.2 °F /  9 °C 45.7 °F /  7.6 °C 29.5in /  999.3hPa NW 4.9mph /  7.9km/h 7mph /  11.3km/h 91% 0in /  0.0mm 51 W/m2
15:15 48.4 °F /  9.1 °C 45.9 °F /  7.7 °C 29.5in /  999.7hPa NW 4mph /  6.4km/h 5mph /  8km/h 91% 0in /  0.0mm 42 W/m2
15:21 48.4 °F /  9.1 °C 45.9 °F /  7.7 °C 29.5in /  999.7hPa West 2mph /  3.2km/h 7mph /  11.3km/h 91% 0in /  0.0mm 47 W/m2
15:26 48.4 °F /  9.1 °C 45.9 °F /  7.7 °C 29.5in /  999.7hPa West 2.9mph /  4.7km/h 6mph /  9.7km/h 91% 0in /  0.0mm 39 W/m2
15:31 48.4 °F /  9.1 °C 45.9 °F /  7.7 °C 29.5in /  999.7hPa West 0.9mph /  1.4km/h 3mph /  4.8km/h 91% 0in /  0.0mm 26 W/m2
15:36 48 °F /  8.9 °C 45.9 °F /  7.7 °C 29.5in /  1000.0hPa WNW 2mph /  3.2km/h 6mph /  9.7km/h 92% 0in /  0.0mm 14 W/m2
15:41 47.8 °F /  8.8 °C 45.7 °F /  7.6 °C 29.5in /  1000.0hPa WNW 0.9mph /  1.4km/h 2mph /  3.2km/h 92% 0in /  0.0mm 12 W/m2
15:46 47.7 °F /  8.7 °C 45.7 °F /  7.6 °C 29.5in /  1000.0hPa WNW 2.9mph /  4.7km/h 3mph /  4.8km/h 93% 0.01in /  0.2mm 9 W/m2
15:51 47.5 °F /  8.6 °C 45.5 °F /  7.5 °C 29.5in /  1000.3hPa WNW 2mph /  3.2km/h 4mph /  6.4km/h 93% 0.02in /  0.5mm 11 W/m2
15:56 47.3 °F /  8.5 °C 45.7 °F /  7.6 °C 29.5in /  1000.3hPa NW 4.9mph /  7.9km/h 5mph /  8km/h 94% 0.02in /  0.5mm 11 W/m2
16:01 47.1 °F /  8.4 °C 45.5 °F /  7.5 °C 29.5in /  1000.3hPa West 0.9mph /  1.4km/h 2mph /  3.2km/h 94% 0.02in /  0.5mm 7 W/m2
16:06 46.9 °F /  8.3 °C 45.3 °F /  7.4 °C 29.5in /  1000.3hPa WSW 4mph /  6.4km/h 6mph /  9.7km/h 94% 0.02in /  0.5mm 9 W/m2
16:11 46.9 °F /  8.3 °C 45.3 °F /  7.4 °C 29.5in /  1000.3hPa WSW 2.9mph /  4.7km/h 7mph /  11.3km/h 94% 0.02in /  0.5mm 7 W/m2
16:16 46.9 °F /  8.3 °C 45.5 °F /  7.5 °C 29.5in /  1000.3hPa West 2.9mph /  4.7km/h 4mph /  6.4km/h 95% 0.02in /  0.5mm 0 W/m2
16:21 46.9 °F /  8.3 °C 45.5 °F /  7.5 °C 29.5in /  1000.3hPa SW 4mph /  6.4km/h 7mph /  11.3km/h 95% 0.02in /  0.5mm 0 W/m2
16:26 46.9 °F /  8.3 °C 45.5 °F /  7.5 °C 29.5in /  1000.3hPa West 2mph /  3.2km/h 4mph /  6.4km/h 95% 0.02in /  0.5mm 0 W/m2
16:31 46.9 °F /  8.3 °C 45.5 °F /  7.5 °C 29.6in /  1000.7hPa West 4mph /  6.4km/h 7mph /  11.3km/h 95% 0.03in /  0.8mm 0 W/m2
16:36 46.8 °F /  8.2 °C 45.3 °F /  7.4 °C 29.6in /  1000.7hPa WNW 0.9mph /  1.4km/h 6mph /  9.7km/h 95% 0.03in /  0.8mm 0 W/m2
16:41 46.8 °F /  8.2 °C 45.3 °F /  7.4 °C 29.6in /  1000.7hPa West 2mph /  3.2km/h 7mph /  11.3km/h 95% 0.03in /  0.8mm 0 W/m2
16:46 46.8 °F /  8.2 °C 45.3 °F /  7.4 °C 29.6in /  1000.7hPa WNW 2mph /  3.2km/h 5mph /  8km/h 95% 0.02in /  0.5mm 0 W/m2
16:51 46.8 °F /  8.2 °C 45.1 °F /  7.3 °C 29.6in /  1001.0hPa Calm   2mph /  3.2km/h 94% 0.01in /  0.2mm 0 W/m2
16:56 46.8 °F /  8.2 °C 45.3 °F /  7.4 °C 29.6in /  1001.0hPa West 0.9mph /  1.4km/h 5mph /  8km/h 95% 0.01in /  0.2mm 0 W/m2
17:01 46.6 °F /  8.1 °C 45.1 °F /  7.3 °C 29.6in /  1001.0hPa Calm   2mph /  3.2km/h 95% 0.01in /  0.2mm 0 W/m2
17:06 46.6 °F /  8.1 °C 45.1 °F /  7.3 °C 29.6in /  1001.0hPa WNW 0.9mph /  1.4km/h 1mph /  1.6km/h 95% 0.01in /  0.2mm 0 W/m2
17:11 46.6 °F /  8.1 °C 45.1 °F /  7.3 °C 29.6in /  1001.0hPa West 0.9mph /  1.4km/h 3mph /  4.8km/h 95% 0.01in /  0.2mm 0 W/m2
17:16 46.6 °F /  8.1 °C 45.1 °F /  7.3 °C 29.6in /  1001.0hPa Calm   1mph /  1.6km/h 95% 0.01in /  0.2mm 0 W/m2
17:21 46.4 °F /  8 °C 45 °F /  7.2 °C 29.6in /  1001.4hPa Calm   3mph /  4.8km/h 95% 0.01in /  0.2mm 0 W/m2
17:26 46.2 °F /  7.9 °C 44.8 °F /  7.1 °C 29.6in /  1001.4hPa Calm     95% 0.01in /  0.2mm 0 W/m2
17:31 46.2 °F /  7.9 °C 44.8 °F /  7.1 °C 29.6in /  1001.4hPa Calm   3mph /  4.8km/h 95% 0in /  0.0mm 0 W/m2
17:36 46.2 °F /  7.9 °C 44.8 °F /  7.1 °C 29.6in /  1001.4hPa Calm     95% 0in /  0.0mm 0 W/m2
17:41 46.2 °F /  7.9 °C 44.8 °F /  7.1 °C 29.6in /  1001.4hPa Calm   3mph /  4.8km/h 95% 0in /  0.0mm 0 W/m2
17:46 46 °F /  7.8 °C 44.6 °F /  7 °C 29.6in /  1001.4hPa Calm     95% 0.01in /  0.2mm 0 W/m2
17:51 46 °F /  7.8 °C 45 °F /  7.2 °C 29.6in /  1001.4hPa Calm     96% 0.02in /  0.5mm 0 W/m2
17:56 46 °F /  7.8 °C 45 °F /  7.2 °C 29.6in /  1001.7hPa Calm   1mph /  1.6km/h 96% 0.02in /  0.5mm 0 W/m2
18:01 46 °F /  7.8 °C 45 °F /  7.2 °C 29.6in /  1001.7hPa Calm     96% 0.02in /  0.5mm 0 W/m2
18:06 46 °F /  7.8 °C 45 °F /  7.2 °C 29.6in /  1001.7hPa Calm   1mph /  1.6km/h 96% 0.02in /  0.5mm 0 W/m2
18:11 46.2 °F /  7.9 °C 45.1 °F /  7.3 °C 29.6in /  1001.7hPa West 0.9mph /  1.4km/h 3mph /  4.8km/h 96% 0.02in /  0.5mm 0 W/m2
18:16 46.2 °F /  7.9 °C 45.1 °F /  7.3 °C 29.6in /  1001.7hPa Calm   1mph /  1.6km/h 96% 0.02in /  0.5mm 0 W/m2
18:21 46.2 °F /  7.9 °C 45.1 °F /  7.3 °C 29.6in /  1002.0hPa WNW 0.9mph /  1.4km/h 1mph /  1.6km/h 96% 0.02in /  0.5mm 0 W/m2
18:26 46.2 °F /  7.9 °C 45.1 °F /  7.3 °C 29.6in /  1002.0hPa Calm   1mph /  1.6km/h 96% 0.02in /  0.5mm 0 W/m2
18:31 46.2 °F /  7.9 °C 45.1 °F /  7.3 °C 29.6in /  1002.0hPa Calm     96% 0.02in /  0.5mm 0 W/m2
18:36 46.2 °F /  7.9 °C 45.1 °F /  7.3 °C 29.6in /  1002.0hPa West 2mph /  3.2km/h 3mph /  4.8km/h 96% 0.02in /  0.5mm 0 W/m2
18:41 46.2 °F /  7.9 °C 45.1 °F /  7.3 °C 29.6in /  1002.0hPa Calm   1mph /  1.6km/h 96% 0.03in /  0.8mm 0 W/m2
18:46 46.2 °F /  7.9 °C 45.1 °F /  7.3 °C 29.6in /  1002.0hPa West 2mph /  3.2km/h 3mph /  4.8km/h 96% 0.02in /  0.5mm 0 W/m2
18:51 46.2 °F /  7.9 °C 45.1 °F /  7.3 °C 29.6in /  1002.0hPa West 2mph /  3.2km/h 2mph /  3.2km/h 96% 0.02in /  0.5mm 0 W/m2
18:56 46.2 °F /  7.9 °C 45.1 °F /  7.3 °C 29.6in /  1002.0hPa WSW 2.9mph /  4.7km/h 4mph /  6.4km/h 96% 0.02in /  0.5mm 0 W/m2
19:01 46.4 °F /  8 °C 45.3 °F /  7.4 °C 29.6in /  1002.4hPa Calm   2mph /  3.2km/h 96% 0.02in /  0.5mm 0 W/m2
19:06 46.2 °F /  7.9 °C 45.1 °F /  7.3 °C 29.6in /  1002.4hPa West 2mph /  3.2km/h 3mph /  4.8km/h 96% 0.01in /  0.2mm 0 W/m2
19:11 46.4 °F /  8 °C 45.3 °F /  7.4 °C 29.6in /  1002.4hPa West 2mph /  3.2km/h 2mph /  3.2km/h 96% 0.01in /  0.2mm 0 W/m2
19:16 46.4 °F /  8 °C 45.3 °F /  7.4 °C 29.6in /  1002.4hPa SW 2mph /  3.2km/h 2mph /  3.2km/h 96% 0.01in /  0.2mm 0 W/m2
19:21 46.4 °F /  8 °C 45.3 °F /  7.4 °C 29.6in /  1002.4hPa West 0.9mph /  1.4km/h 4mph /  6.4km/h 96% 0.01in /  0.2mm 0 W/m2
19:26 46.4 °F /  8 °C 45.3 °F /  7.4 °C 29.6in /  1002.4hPa WNW 0.9mph /  1.4km/h 3mph /  4.8km/h 96% 0.01in /  0.2mm 0 W/m2
19:31 46.4 °F /  8 °C 45.3 °F /  7.4 °C 29.6in /  1002.4hPa West 2mph /  3.2km/h 4mph /  6.4km/h 96% 0.02in /  0.5mm 0 W/m2
19:36 46.6 °F /  8.1 °C 45.5 °F /  7.5 °C 29.6in /  1002.7hPa West 2.9mph /  4.7km/h 4mph /  6.4km/h 96% 0.02in /  0.5mm 0 W/m2
19:41 46.6 °F /  8.1 °C 45.5 °F /  7.5 °C 29.6in /  1002.7hPa WSW 6.9mph /  11.1km/h 7mph /  11.3km/h 96% 0.01in /  0.2mm 0 W/m2
19:46 46.6 °F /  8.1 °C 45.5 °F /  7.5 °C 29.6in /  1002.7hPa West 4mph /  6.4km/h 7mph /  11.3km/h 96% 0.01in /  0.2mm 0 W/m2
19:51 46.6 °F /  8.1 °C 45.5 °F /  7.5 °C 29.6in /  1002.7hPa NW 8.1mph /  13km/h 10mph /  16.1km/h 96% 0.02in /  0.5mm 0 W/m2
19:56 46.6 °F /  8.1 °C 45.5 °F /  7.5 °C 29.6in /  1002.7hPa WSW 4.9mph /  7.9km/h 6mph /  9.7km/h 96% 0.02in /  0.5mm 0 W/m2
20:01 46.6 °F /  8.1 °C 45.1 °F /  7.3 °C 29.6in /  1002.7hPa WSW 4mph /  6.4km/h 9mph /  14.5km/h 95% 0.02in /  0.5mm 0 W/m2
20:06 46.6 °F /  8.1 °C 45.1 °F /  7.3 °C 29.6in /  1003.0hPa West 2.9mph /  4.7km/h 6mph /  9.7km/h 95% 0.02in /  0.5mm 0 W/m2
20:11 46.6 °F /  8.1 °C 45.1 °F /  7.3 °C 29.6in /  1003.0hPa WNW 0.9mph /  1.4km/h 4mph /  6.4km/h 95% 0.02in /  0.5mm 0 W/m2
20:16 46.6 °F /  8.1 °C 45.1 °F /  7.3 °C 29.6in /  1003.0hPa WSW 2.9mph /  4.7km/h 6mph /  9.7km/h 95% 0.02in /  0.5mm 0 W/m2
20:22 46.6 °F /  8.1 °C 45.1 °F /  7.3 °C 29.6in /  1003.0hPa WNW 4mph /  6.4km/h 5mph /  8km/h 95% 0.02in /  0.5mm 0 W/m2
20:27 46.6 °F /  8.1 °C 45.1 °F /  7.3 °C 29.6in /  1003.0hPa West 4mph /  6.4km/h 7mph /  11.3km/h 95% 0.02in /  0.5mm 0 W/m2
20:32 46.6 °F /  8.1 °C 45.1 °F /  7.3 °C 29.6in /  1003.4hPa West 2mph /  3.2km/h 4mph /  6.4km/h 95% 0.02in /  0.5mm 0 W/m2
20:37 46.6 °F /  8.1 °C 45.1 °F /  7.3 °C 29.6in /  1003.0hPa NW 2mph /  3.2km/h 8mph /  12.9km/h 95% 0.02in /  0.5mm 0 W/m2
20:42 46.6 °F /  8.1 °C 45.1 °F /  7.3 °C 29.6in /  1003.4hPa West 4mph /  6.4km/h 4mph /  6.4km/h 95% 0.02in /  0.5mm 0 W/m2
20:47 46.6 °F /  8.1 °C 45.1 °F /  7.3 °C 29.6in /  1003.4hPa WNW 4.9mph /  7.9km/h 8mph /  12.9km/h 95% 0.02in /  0.5mm 0 W/m2
20:52 46.6 °F /  8.1 °C 45.1 °F /  7.3 °C 29.6in /  1003.4hPa WNW 2mph /  3.2km/h 3mph /  4.8km/h 95% 0.01in /  0.2mm 0 W/m2
20:57 46.6 °F /  8.1 °C 45.1 °F /  7.3 °C 29.6in /  1003.4hPa SW 4.9mph /  7.9km/h 7mph /  11.3km/h 95% 0.01in /  0.2mm 0 W/m2
21:02 46.6 °F /  8.1 °C 45.1 °F /  7.3 °C 29.6in /  1003.4hPa West 0.9mph /  1.4km/h 4mph /  6.4km/h 95% 0.01in /  0.2mm 0 W/m2
21:07 46.6 °F /  8.1 °C 45.1 °F /  7.3 °C 29.6in /  1003.4hPa NW 4mph /  6.4km/h 7mph /  11.3km/h 95% 0.01in /  0.2mm 0 W/m2
21:12 46.6 °F /  8.1 °C 45.1 °F /  7.3 °C 29.6in /  1003.7hPa WNW 6mph /  9.7km/h 6mph /  9.7km/h 95% 0.02in /  0.5mm 0 W/m2
21:17 46.6 °F /  8.1 °C 45.1 °F /  7.3 °C 29.6in /  1003.7hPa West 6mph /  9.7km/h 9mph /  14.5km/h 95% 0.02in /  0.5mm 0 W/m2
21:22 46.6 °F /  8.1 °C 45.1 °F /  7.3 °C 29.6in /  1003.7hPa WNW 2.9mph /  4.7km/h 7mph /  11.3km/h 95% 0.02in /  0.5mm 0 W/m2
21:27 46.6 °F /  8.1 °C 45.1 °F /  7.3 °C 29.6in /  1003.7hPa WSW 4.9mph /  7.9km/h 7mph /  11.3km/h 95% 0.02in /  0.5mm 0 W/m2
21:32 46.6 °F /  8.1 °C 45.1 °F /  7.3 °C 29.6in /  1003.7hPa WNW 2mph /  3.2km/h 5mph /  8km/h 95% 0.02in /  0.5mm 0 W/m2
21:37 46.6 °F /  8.1 °C 45.1 °F /  7.3 °C 29.7in /  1004.1hPa WSW 2mph /  3.2km/h 4mph /  6.4km/h 95% 0.02in /  0.5mm 0 W/m2
21:42 46.6 °F /  8.1 °C 45.1 °F /  7.3 °C 29.7in /  1004.1hPa West 2.9mph /  4.7km/h 8mph /  12.9km/h 95% 0.02in /  0.5mm 0 W/m2
21:47 46.6 °F /  8.1 °C 45.1 °F /  7.3 °C 29.7in /  1004.1hPa WSW 0.9mph /  1.4km/h 5mph /  8km/h 95% 0.03in /  0.8mm 0 W/m2
21:52 46.4 °F /  8 °C 45 °F /  7.2 °C 29.7in /  1004.1hPa West 4mph /  6.4km/h 5mph /  8km/h 95% 0.03in /  0.8mm 0 W/m2
21:57 46.4 °F /  8 °C 45 °F /  7.2 °C 29.7in /  1004.1hPa WNW 2.9mph /  4.7km/h 7mph /  11.3km/h 95% 0.04in /  1.0mm 0 W/m2
22:02 46.4 °F /  8 °C 45 °F /  7.2 °C 29.7in /  1004.1hPa West 2mph /  3.2km/h 9mph /  14.5km/h 95% 0.04in /  1.0mm 0 W/m2
22:07 46.4 °F /  8 °C 45 °F /  7.2 °C 29.7in /  1004.4hPa WSW 2mph /  3.2km/h 4mph /  6.4km/h 95% 0.04in /  1.0mm 0 W/m2
22:12 46.2 °F /  7.9 °C 44.8 °F /  7.1 °C 29.7in /  1004.4hPa West 0.9mph /  1.4km/h 9mph /  14.5km/h 95% 0.04in /  1.0mm 0 W/m2
22:17 46.2 °F /  7.9 °C 44.8 °F /  7.1 °C 29.7in /  1004.4hPa West 2.9mph /  4.7km/h 6mph /  9.7km/h 95% 0.04in /  1.0mm 0 W/m2
22:22 46.2 °F /  7.9 °C 44.8 °F /  7.1 °C 29.7in /  1004.4hPa WNW 2mph /  3.2km/h 6mph /  9.7km/h 95% 0.03in /  0.8mm 0 W/m2
22:27 46.2 °F /  7.9 °C 44.8 °F /  7.1 °C 29.7in /  1004.4hPa West 2.9mph /  4.7km/h 8mph /  12.9km/h 95% 0.03in /  0.8mm 0 W/m2
22:32 46.2 °F /  7.9 °C 44.8 °F /  7.1 °C 29.7in /  1004.4hPa West 2.9mph /  4.7km/h 6mph /  9.7km/h 95% 0.03in /  0.8mm 0 W/m2
22:37 46.2 °F /  7.9 °C 44.8 °F /  7.1 °C 29.7in /  1004.4hPa West 6.9mph /  11.1km/h 8mph /  12.9km/h 95% 0.03in /  0.8mm 0 W/m2
22:42 46.2 °F /  7.9 °C 44.8 °F /  7.1 °C 29.7in /  1004.7hPa West 4mph /  6.4km/h 8mph /  12.9km/h 95% 0.03in /  0.8mm 0 W/m2
22:47 46.2 °F /  7.9 °C 44.8 °F /  7.1 °C 29.7in /  1004.7hPa West 2mph /  3.2km/h 6mph /  9.7km/h 95% 0.03in /  0.8mm 0 W/m2
22:52 46.2 °F /  7.9 °C 44.8 °F /  7.1 °C 29.7in /  1004.7hPa WSW 4.9mph /  7.9km/h 8mph /  12.9km/h 95% 0.03in /  0.8mm 0 W/m2
22:57 46.2 °F /  7.9 °C 44.8 °F /  7.1 °C 29.7in /  1004.7hPa West 4mph /  6.4km/h 10mph /  16.1km/h 95% 0.03in /  0.8mm 0 W/m2
23:02 46.2 °F /  7.9 °C 44.8 °F /  7.1 °C 29.7in /  1004.7hPa West 10.1mph /  16.3km/h 10mph /  16.1km/h 95% 0.03in /  0.8mm 0 W/m2
23:07 46.2 °F /  7.9 °C 44.8 °F /  7.1 °C 29.7in /  1004.7hPa WSW 6.9mph /  11.1km/h 9mph /  14.5km/h 95% 0.04in /  1.0mm 0 W/m2
23:12 46.2 °F /  7.9 °C 44.8 °F /  7.1 °C 29.7in /  1005.1hPa West 2.9mph /  4.7km/h 8mph /  12.9km/h 95% 0.03in /  0.8mm 0 W/m2
23:17 46 °F /  7.8 °C 44.6 °F /  7 °C 29.7in /  1005.1hPa WSW 6.9mph /  11.1km/h 10mph /  16.1km/h 95% 0.03in /  0.8mm 0 W/m2
23:22 46 °F /  7.8 °C 44.6 °F /  7 °C 29.7in /  1005.1hPa West 2mph /  3.2km/h 10mph /  16.1km/h 95% 0.03in /  0.8mm 0 W/m2
23:27 46 °F /  7.8 °C 44.6 °F /  7 °C 29.7in /  1005.1hPa West 6.9mph /  11.1km/h 9mph /  14.5km/h 95% 0.03in /  0.8mm 0 W/m2
23:32 46 °F /  7.8 °C 44.6 °F /  7 °C 29.7in /  1005.1hPa WSW 4mph /  6.4km/h 7mph /  11.3km/h 95% 0.02in /  0.5mm 0 W/m2
23:37 46 °F /  7.8 °C 44.6 °F /  7 °C 29.7in /  1005.1hPa West 6.9mph /  11.1km/h 10mph /  16.1km/h 95% 0.02in /  0.5mm 0 W/m2
23:42 46 °F /  7.8 °C 44.6 °F /  7 °C 29.7in /  1005.4hPa West 4mph /  6.4km/h 9mph /  14.5km/h 95% 0.02in /  0.5mm 0 W/m2
23:47 46 °F /  7.8 °C 44.6 °F /  7 °C 29.7in /  1005.4hPa West 2mph /  3.2km/h 10mph /  16.1km/h 95% 0.02in /  0.5mm 0 W/m2
23:52 46 °F /  7.8 °C 44.6 °F /  7 °C 29.7in /  1005.4hPa West 6mph /  9.7km/h 11mph /  17.7km/h 95% 0.02in /  0.5mm 0 W/m2
23:57 46 °F /  7.8 °C 44.4 °F /  6.9 °C 29.7in /  1005.8hPa West 8.9mph /  14.3km/h 14mph /  22.5km/h 94% 0.01in /  0.2mm 0 W/m2
Juneau County Weather
Compliments of Weather Underground - 4 mb